Find Kosmos-1181

NORAD ID: 11803 Int'l Des: 1980-039 Owner: VMF Country: SU operational
LEOCIRCULARPOLAR

Aktuelle Ansicht

3D-Globus wird geladen...

Über Kosmos-1181

Beschreibung wird geladen...

Nächste Überflüge

Passes for default location (London). Set your location on the main map for personalized predictions.

Höhenverlauf

Loading altitude history...

Zweizeiliger Elementsatz

1 11803U 80039A 26151.32379153 .00000063 00000-0 50535-4 0 9992
2 11803 82.9434 228.2504 0020879 287.9320 138.9380 13.74203306307646
Epoch: 31. Mai 2026 • Age: 16 hours

Aktueller Status

Höhe 990.3 km
Geschwindigkeit 7.36 km/s
Subsatellitenpunkt 25.88°N, 7.75°W
Startdatum 20. Mai 1980
Alter 46 years
Typ other

Technische Details

Klassifizierung Payload
Masse 800.00 kg
Trockenmasse 800.00 kg
Gesamtmasse 800.00 kg
Länge 5.00 m
Durchmesser 2.10 m
Spannweite 17.00 m
Form Cyl + Ant
Hersteller OAZ
Bus-Typ KAUR-1 11F627
Phasenstatus In Orbit
Besitzer/Staat VMF/SU

Most Searched